Home > Weather > Fredrikstad > Past weeks

Flag for Norway Weather for the Past 2 Weeks in Fredrikstad, Norway

Now
59 °F

Passing clouds.


Feels Like: 57 °F
Forecast: 38 / 63 °F
Wind: 9 mph from Southwest

Location: Rygge

Current Time: May 6, 2016 at 4:10:27 PM

Latest Report: May 6, 2016 at 3:20 PM


Visibility: N/A

Pressure: 30.21 "Hg

Humidity: 42%

Dew Point: 36 °F

Location of FredrikstadLocation

Historic Weather in Fredrikstad — Graph

°F

Fredrikstad Temperature Yesterday

Maximum temperature yesterday: 54 °F (at 2:50 PM)
Minimum temperature yesterday: 41 °F (at 4:50 AM)
Average temperature yesterday: 48 °F

High & Low Weather Summary for the Past Weeks

 TemperatureHumidityPressure
High59 °F (May 6, 2:50 PM)100% (Apr 25, 12:50 AM)30.33 "Hg (Apr 25, 12:50 AM)
Low28 °F (Apr 23, 5:20 AM)24% (Apr 22, 4:50 PM)29.62 "Hg (Apr 25, 12:50 PM)
Average43 °F70%29.97 "Hg
* Reported Apr 21 2:20 PM — May 6 2:50 PM, Fredrikstad, Weather by CustomWeather, © 2016

Note: Actual official high and low records may vary slightly from our data, if they occured in-between our weather recording intervals... More about our weather records

Advertising

Fredrikstad Weather History for the Previous 24 Hours

Scroll right to see more
 ConditionsComfort  
Time TempWeatherWind HumidityBarometerVisibility
2:50 PM
Fri, May 6
59 °FSunny.12 mph42%30.21 "Hg10 mi
2:20 PM57 °FSunny.13 mph41%30.24 "Hg10 mi
1:50 PM57 °FSunny.12 mph39%30.24 "Hg10 mi
1:20 PM57 °FSunny.12 mph39%30.24 "Hg10 mi
12:50 PM57 °FSunny.10 mph39%30.24 "Hg10 mi
12:20 PM57 °FPassing clouds.10 mph41%30.24 "HgN/A
11:50 AM55 °FPassing clouds.8 mph55%30.24 "HgN/A
11:20 AM55 °FPassing clouds.8 mph55%30.27 "HgN/A
10:50 AM55 °FSunny.8 mph55%30.27 "Hg10 mi
10:20 AM54 °FPassing clouds.7 mph58%30.27 "HgN/A
9:50 AM54 °FPassing clouds.6 mph63%30.27 "HgN/A
9:20 AM54 °FPassing clouds.3 mph63%30.27 "HgN/A
8:50 AM50 °FPassing clouds.3 mph76%30.27 "HgN/A
8:20 AM48 °FPassing clouds.3 mph82%30.27 "HgN/A
7:50 AM48 °FSunny.2 mph87%30.27 "Hg10 mi
7:20 AM46 °FSunny.5 mph87%30.27 "Hg10 mi
6:50 AM43 °FSunny.6 mph93%30.24 "Hg10 mi
6:20 AM39 °FSunny.3 mph93%30.27 "Hg10 mi
5:50 AM37 °FChilly.5 mph100%30.27 "HgN/A
5:20 AM37 °FChilly.3 mph100%30.27 "Hg6 mi
4:50 AM41 °FQuite cool.5 mph93%30.27 "HgN/A
4:20 AM41 °FQuite cool.2 mph100%30.27 "HgN/A
3:50 AM43 °FQuite cool.2 mph93%30.27 "HgN/A
3:20 AM43 °FQuite cool.3 mph93%30.27 "HgN/A
2:50 AM43 °FQuite cool.5 mph93%30.27 "HgN/A
2:20 AM45 °FQuite cool.5 mph87%30.27 "HgN/A
1:50 AM45 °FQuite cool.3 mph87%30.27 "HgN/A
1:20 AM45 °FQuite cool.7 mph87%30.27 "HgN/A
12:50 AM45 °FQuite cool.7 mph87%30.27 "HgN/A
12:20 AM45 °FQuite cool.6 mph87%30.27 "HgN/A
11:50 PM
Thu, May 5
45 °FQuite cool.6 mph87%30.27 "HgN/A
11:20 PM45 °FClear.6 mph87%30.27 "Hg10 mi
10:50 PM45 °FClear.6 mph87%30.27 "Hg10 mi
10:20 PM46 °FSunny.6 mph82%30.27 "Hg10 mi
9:50 PM46 °FSunny.7 mph82%30.27 "Hg10 mi
9:20 PM46 °FSunny.9 mph82%30.27 "Hg10 mi
8:50 PM48 °FSunny.10 mph71%30.27 "Hg10 mi
8:20 PM48 °FSunny.13 mph76%30.27 "Hg10 mi
7:50 PM48 °FSunny.14 mph71%30.27 "Hg10 mi
7:20 PM50 °FSunny.15 mph67%30.30 "Hg10 mi
6:50 PM50 °FSunny.13 mph71%30.30 "Hg10 mi
6:20 PM52 °FSunny.14 mph67%30.30 "Hg10 mi
5:50 PM52 °FPassing clouds.15 mph62%30.30 "HgN/A
5:20 PM52 °FSunny.17 mph58%30.30 "Hg10 mi
4:50 PM52 °FSunny.17 mph62%30.33 "Hg10 mi
4:20 PM52 °FSunny.16 mph62%30.33 "Hg10 mi
Weather by CustomWeather, © 2016

See weather overviewHow to use our weather pages